sat.trackr.live / text

‹ back to catalog

STARLINK-31370

NORAD 59520 · 2024-073K

PAYLOAD ACTIVE UNKNOWN

§ Identity

Operator
Country
US
Launch date
2024-04-17
Launch site
AFETR
Launch vehicle
Mass (kg)
RCS (m²)

Purposes: comms

External: N2YO · Heavens-Above · Gunter

§ Orbital elements

Epoch: 2026-09-21T18:51:27.037440Z

Period
94.27 min
Inclination
43.0060°
Eccentricity
0.0001193
Mean motion
15.27577947 rev/d
Perigee alt
482.2 km
Apogee alt
483.9 km
Semi-major
6,861.2 km
B*
-3.5624e-7
RAAN
290.7737°
Arg perigee
277.5363°
Mean anomaly
82.5353°
Rev number
13,616

§ Raw data

STARLINK-313701 59520U 24073K   26264.78572960 -.00000272  00000+0 -35624-6 0  99992 59520  43.0060 290.7737 0001193 277.5363  82.5353 15.27577947136165

JSON: /api/v1/satellites/59520 · /tle

For live sub-satellite position, see the globe view (requires WebGL).

§ Visibility from observer

Set your observer location to see the next 7 days of passes ≥ 10°. The values pass through the URL so the page stays shareable.

No JS? Fill the form by hand. The geolocation button needs JavaScript.